Content
SEND FEEDBACK

Daily
Averages
Monthly
Summary
United States of America

MERIZO, GUAM


Home > North America > United States > Guam
Elevation: 10 feet     Latitude: 13 14N     Longitude: 144 39E

WEATHER
 
SELECT A DAY
Number of Records: 342,429;   Date Range: 1/1/95 - 9/3/14
 
SHARE

PRINT THIS DATA

[ ← Previous Day ]
WEATHER ALMANAC - JUNE 16, 2014
[ Next Day → ]
[ °C ]   °F
Weather ElementAverageHighLow
Temperature82.4 °F86.5 °F (11:58 am)78.3 °F (4:58 am)
Dewpoint75.8 °F77 °F (6:47 am)74.1 °F (2:58 am)
Humidity81 %89 % (6:47 am)67 % (11:58 am)
Barometer29.82 in29.86 in (7:38 am)29.77 in (2:58 pm)
Wind Speed5.3 mph10.4 mph (1:58 pm)
Weather ElementAverage
Visibility10 mi
Wind DirectionESE (120.3 °)

Weather ElementTotal
Precipitation---
Cooling Degree Days17.4 (Base 65)
Growing Degree Days32.4 (Base 50)
Averaged from 32 records on June 16, 2014
WEATHER CONDITIONS BREAKOUT
WIND DIRECTION BREAKOUT
WEATHER BY HOUR - JUNE 16, 2014
[ °C ]   °F
Local TimeTemperatureDewpointHumidityBarometerVisibilityWind DirectionWind SpeedGust SpeedPrecipitationEventsConditions
1:58 AM79.7 °F75.9 °F88 %29.81 in10.0 miESE (120°)5.8 mphClear
2:58 AM79.2 °F74.1 °F84 %29.78 in10.0 miESE (110°)5.8 mphClear
3:58 AM79.2 °F75.2 °F88 %29.78 in10.0 miESE (110°)4.6 mphClear
4:58 AM78.3 °F74.5 °F88 %29.79 in10.0 miESE (110°)4.6 mphClear
5:58 AM78.6 °F74.8 °F88 %29.81 in10.0 miEast (100°)4.6 mphClear
6:29 AM80.6 °F75.2 °F84 %29.84 in10.0 miESE (110°)2.3 mphMostly Cloudy
6:35 AM80.6 °F75.2 °F84 %29.84 in10.0 miESE (110°)3.5 mphMostly Cloudy
6:47 AM80.6 °F77.0 °F89 %29.85 in10.0 miEast (100°)3.5 mphScattered Clouds
6:58 AM81.0 °F76.3 °F86 %29.82 in10.0 miESE (110°)4.6 mphPartly Cloudy
7:28 AM82.4 °F77.0 °F84 %29.85 in10.0 miEast (90°)5.8 mphMostly Cloudy
7:33 AM82.4 °F77.0 °F84 %29.85 in10.0 miESE (110°)5.8 mphMostly Cloudy
7:38 AM82.4 °F77.0 °F84 %29.86 in10.0 miESE (120°)4.6 mphMostly Cloudy
7:43 AM82.4 °F77.0 °F84 %29.86 in10.0 miEast (100°)4.6 mphMostly Cloudy
7:48 AM82.4 °F77.0 °F84 %29.86 in10.0 miESE (110°)4.6 mphMostly Cloudy
7:53 AM82.4 °F77.0 °F84 %29.86 in10.0 miEast (100°)4.6 mphScattered Clouds
7:58 AM82.9 °F76.8 °F82 %29.83 in10.0 miSE (140°)4.6 mphScattered Clouds
8:58 AM84.4 °F76.6 °F77 %29.84 in10.0 miESE (120°)8.1 mphScattered Clouds
9:58 AM84.9 °F75.2 °F73 %29.83 in10.0 miESE (120°)8.1 mphPartly Cloudy
10:58 AM85.8 °F76.5 °F73 %29.83 in10.0 miEast (100°)8.1 mphClear
11:58 AM86.5 °F74.5 °F67 %29.82 in10.0 miEast (100°)9.2 mphClear
12:58 PM86.2 °F74.8 °F69 %29.81 in10.0 miESE (120°)6.9 mphPartly Cloudy
1:58 PM86.0 °F76.6 °F73 %29.79 in10.0 miSE (130°)10.4 mphPartly Cloudy
2:58 PM86.4 °F76.5 °F72 %29.77 in10.0 miESE (120°)8.1 mphClear
3:58 PM86.2 °F74.5 °F68 %29.77 in10.0 miESE (120°)8.1 mphClear
4:58 PM85.3 °F75.2 °F72 %29.77 in10.0 miSSE (150°)8.1 mphClear
5:58 PM82.9 °F76.1 °F80 %29.77 in10.0 miSE (140°)8.1 mphClear
6:58 PM82.2 °F76.1 °F82 %29.79 in10.0 miSouth (190°)2.3 mphClear
7:58 PM79.9 °F75.6 °F87 %29.81 in10.0 miCalmClear
8:58 PM81.0 °F75.7 °F84 %29.83 in10.0 miSouth (170°)4.6 mphClear
9:58 PM81.3 °F75.6 °F83 %29.84 in10.0 miSouth (170°)3.5 mphClear
10:58 PM80.8 °F75.2 °F83 %29.86 in10.0 miSSE (160°)1.2 mphPartly Cloudy
11:58 PM80.8 °F75.0 °F83 %29.84 in10.0 miSouth (190°)1.2 mphClear
Hourly data recorded from PGUA, located miles away from Merizo, Guam







STORIES FROM OUR PARTNERS